| time (UTC) | temp F | wind direction | speed knots | gust knots | rain 1hr in | rain 24hr in | rain mn in | humidity % | barometer mb |
| 20260506132407 | 56 | 63 | 3.5 | 11.3 | 0.00 | 0.00 | 0.00 | 57 | 1009.2 |
| 20260506131906 | 56 | 86 | 3.5 | 11.3 | 0.00 | 0.00 | 0.00 | 57 | 1009.3 |
| 20260506131406 | 56 | 77 | 3.5 | 8.7 | 0.00 | 0.00 | 0.00 | 57 | 1009.2 |
| 20260506130907 | 56 | 80 | 3.5 | 9.6 | 0.00 | 0.00 | 0.00 | 60 | 1009.2 |
| 20260506130408 | 56 | 103 | 3.5 | 10.4 | 0.00 | 0.00 | 0.00 | 58 | 1009.1 |
| 20260506125907 | 56 | 88 | 3.5 | 10.4 | 0.00 | 0.00 | 0.00 | 58 | 1009.1 |
| 20260506125407 | 56 | 92 | 4.3 | 13.0 | 0.00 | 0.00 | 0.00 | 59 | 1009.1 |
| 20260506125143 | 56 | 97 | 3.5 | 13.0 | 0.00 | 0.00 | 0.00 | 57 | 1009.1 |
| 20260506124408 | 56 | 123 | 3.5 | 13.9 | 0.00 | 0.00 | 0.00 | 59 | 1009.1 |
| 20260506123906 | 56 | 78 | 4.3 | 13.9 | 0.00 | 0.00 | 0.00 | 59 | 1009.2 |
| 20260506123406 | 56 | 111 | 4.3 | 11.3 | 0.00 | 0.00 | 0.00 | 59 | 1009.0 |
| 20260506123140 | 56 | 344 | 4.3 | 11.3 | 0.00 | 0.00 | 0.00 | 60 | 1009.0 |
| 20260506122420 | 56 | 103 | 4.3 | 9.6 | 0.00 | 0.00 | 0.00 | 60 | 1009.0 |
| 20260506121915 | 56 | 177 | 4.3 | 13.0 | 0.00 | 0.00 | 0.00 | 61 | 1009.2 |
| 20260506121403 | 56 | 125 | 4.3 | 13.0 | 0.00 | 0.00 | 0.00 | 60 | 1009.1 |
| 20260506120904 | 56 | 355 | 3.5 | 12.2 | 0.00 | 0.00 | 0.00 | 60 | 1009.1 |
| 20260506120403 | 56 | 78 | 2.6 | 12.2 | 0.00 | 0.00 | 0.00 | 59 | 1009.0 |
| 20260506120138 | 56 | 107 | 3.5 | 10.4 | 0.00 | 0.00 | 0.00 | 62 | 1008.9 |
| 20260506115403 | 56 | 63 | 4.3 | 10.4 | 0.00 | 0.00 | 0.00 | 60 | 1009.0 |
| 20260506114902 | 56 | 103 | 3.5 | 10.4 | 0.00 | 0.00 | 0.00 | 60 | 1009.0 |
| 20260506114400 | 56 | 0 | 3.5 | 9.6 | 0.00 | 0.00 | 0.00 | 61 | 1008.9 |
| 20260506113902 | 56 | 0 | 3.5 | 14.8 | 0.00 | 0.00 | 0.00 | 61 | 1008.9 |
| 20260506113401 | 56 | 0 | 4.3 | 14.8 | 0.00 | 0.00 | 0.00 | 60 | 1008.9 |
| 20260506112855 | 55 | 0 | 4.3 | 13.0 | 0.00 | 0.00 | 0.00 | 61 | 1008.9 |
| 20260506112349 | 55 | 0 | 3.5 | 10.4 | 0.00 | 0.00 | 0.00 | 62 | 1008.8 |
| 20260506112132 | 55 | 0 | 3.5 | 10.4 | 0.00 | 0.00 | 0.00 | 63 | 1008.9 |
| 20260506111339 | 55 | 111 | 4.3 | 10.4 | 0.00 | 0.00 | 0.00 | 61 | 1008.9 |
| 20260506110829 | 55 | 153 | 4.3 | 10.4 | 0.00 | 0.00 | 0.00 | 62 | 1008.9 |
| 20260506110327 | 55 | 100 | 3.5 | 10.4 | 0.00 | 0.00 | 0.00 | 62 | 1008.9 |
| 20260506105819 | 55 | 118 | 3.5 | 10.4 | 0.00 | 0.00 | 0.00 | 63 | 1008.8 |
| 20260506105315 | 55 | 118 | 4.3 | 13.0 | 0.00 | 0.00 | 0.00 | 62 | 1008.9 |
| 20260506104807 | 55 | 319 | 4.3 | 13.0 | 0.00 | 0.00 | 0.00 | 63 | 1008.9 |
| 20260506104031 | 55 | 151 | 3.5 | 10.4 | 0.00 | 0.00 | 0.00 | 62 | 1008.7 |
| 20260506103249 | 55 | 140 | 3.5 | 9.6 | 0.00 | 0.00 | 0.00 | 62 | 1008.8 |
| 20260506103021 | 54 | 342 | 3.5 | 11.3 | 0.00 | 0.00 | 0.00 | 62 | 1008.8 |
| 20260506102237 | 54 | 94 | 4.3 | 11.3 | 0.00 | 0.00 | 0.00 | 61 | 1008.9 |
| 20260506101732 | 54 | 116 | 4.3 | 10.4 | 0.00 | 0.00 | 0.00 | 63 | 1008.8 |
| 20260506101225 | 54 | 355 | 4.3 | 15.6 | 0.00 | 0.00 | 0.00 | 62 | 1008.7 |
| 20260506100719 | 54 | 104 | 4.3 | 15.6 | 0.00 | 0.00 | 0.00 | 61 | 1008.6 |
| 20260506100227 | 54 | 115 | 3.5 | 12.2 | 0.00 | 0.00 | 0.00 | 62 | 1008.7 |
| 20260506095707 | 54 | 86 | 3.5 | 11.3 | 0.00 | 0.00 | 0.00 | 62 | 1008.6 |
| 20260506095434 | 54 | 337 | 3.5 | 11.3 | 0.00 | 0.00 | 0.00 | 63 | 1008.5 |
| 20260506094930 | 54 | 105 | 3.5 | 9.6 | 0.00 | 0.00 | 0.00 | 62 | 1008.6 |
| 20260506094423 | 54 | 0 | 4.3 | 10.4 | 0.00 | 0.00 | 0.00 | 63 | 1008.5 |
| 20260506093915 | 54 | 148 | 4.3 | 11.3 | 0.00 | 0.00 | 0.00 | 62 | 1008.5 |
| 20260506093137 | 54 | 159 | 3.5 | 11.3 | 0.00 | 0.00 | 0.00 | 62 | 1008.6 |
| 20260506092631 | 54 | 113 | 3.5 | 11.3 | 0.00 | 0.00 | 0.00 | 64 | 1008.5 |
| 20260506092125 | 54 | 355 | 3.5 | 11.3 | 0.00 | 0.00 | 0.00 | 63 | 1008.5 |
| 20260506091617 | 54 | 88 | 3.5 | 11.3 | 0.00 | 0.00 | 0.00 | 63 | 1008.5 |
| 20260506091114 | 54 | 72 | 3.5 | 11.3 | 0.00 | 0.00 | 0.00 | 63 | 1008.5 |
| 20260506090608 | 54 | 92 | 3.5 | 11.3 | 0.00 | 0.00 | 0.00 | 62 | 1008.5 |
| 20260506085553 | 54 | 78 | 4.3 | 12.2 | 0.00 | 0.00 | 0.00 | 65 | 1008.4 |
| 20260506085320 | 54 | 94 | 4.3 | 12.2 | 0.00 | 0.00 | 0.00 | 65 | 1008.4 |
| 20260506084555 | 54 | 84 | 3.5 | 12.2 | 0.00 | 0.00 | 0.00 | 67 | 1008.4 |
| 20260506084312 | 54 | 74 | 4.3 | 12.2 | 0.00 | 0.00 | 0.00 | 67 | 1008.3 |
| 20260506083531 | 54 | 134 | 4.3 | 12.2 | 0.00 | 0.00 | 0.00 | 68 | 1008.4 |
| 20260506083025 | 53 | 65 | 4.3 | 13.0 | 0.00 | 0.00 | 0.00 | 68 | 1008.4 |
| 20260506082519 | 53 | 106 | 3.5 | 13.0 | 0.00 | 0.00 | 0.00 | 68 | 1008.3 |
| 20260506082014 | 53 | 87 | 3.5 | 11.3 | 0.00 | 0.00 | 0.00 | 71 | 1008.3 |
| 20260506081509 | 53 | 82 | 3.5 | 11.3 | 0.00 | 0.00 | 0.00 | 70 | 1008.2 |
| 20260506081001 | 53 | 90 | 3.5 | 13.0 | 0.00 | 0.00 | 0.00 | 73 | 1008.3 |
| 20260506080730 | 53 | 120 | 3.5 | 13.0 | 0.00 | 0.00 | 0.00 | 74 | 1008.3 |
| 20260506073421 | 51 | 43 | 2.6 | 7.0 | 0.00 | 0.00 | 0.00 | 81 | 1008.1 |
| 20260506072914 | 51 | 46 | 2.6 | 10.4 | 0.00 | 0.00 | 0.00 | 82 | 1008.1 |
| 20260506072407 | 51 | 41 | 2.6 | 10.4 | 0.00 | 0.00 | 0.00 | 82 | 1008.0 |
| 20260506071915 | 51 | 336 | 2.6 | 7.8 | 0.00 | 0.00 | 0.00 | 83 | 1008.1 |
| 20260506071355 | 50 | 49 | 2.6 | 9.6 | 0.00 | 0.00 | 0.00 | 83 | 1008.0 |
| 20260506070849 | 50 | 31 | 2.6 | 9.6 | 0.00 | 0.00 | 0.00 | 83 | 1008.0 |
| 20260506070614 | 50 | 71 | 2.6 | 7.0 | 0.00 | 0.00 | 0.00 | 84 | 1008.0 |
| 20260506062317 | 49 | 52 | 2.6 | 10.4 | 0.00 | 0.00 | 0.00 | 84 | 1007.9 |
| 20260506061818 | 49 | 38 | 2.6 | 10.4 | 0.00 | 0.00 | 0.00 | 84 | 1007.9 |
| 20260506061318 | 48 | 19 | 2.6 | 7.8 | 0.00 | 0.00 | 0.00 | 84 | 1007.9 |
| 20260506061049 | 48 | 29 | 1.7 | 7.8 | 0.00 | 0.00 | 0.00 | 84 | 1007.9 |
| 20260506060316 | 48 | 30 | 2.6 | 11.3 | 0.00 | 0.00 | 0.00 | 84 | 1007.9 |
| 20260506050810 | 48 | 19 | 4.3 | 13.0 | 0.00 | 0.00 | 0.00 | 85 | 1007.9 |
| 20260506050311 | 48 | 28 | 3.5 | 10.4 | 0.00 | 0.00 | 0.00 | 85 | 1007.8 |
| 20260506044806 | 48 | 355 | 3.5 | 9.6 | 0.00 | 0.00 | 0.00 | 85 | 1007.9 |
| 20260506044307 | 48 | 27 | 4.3 | 9.6 | 0.00 | 0.00 | 0.00 | 85 | 1007.8 |
| 20260506043808 | 48 | 40 | 3.5 | 8.7 | 0.00 | 0.00 | 0.00 | 85 | 1007.8 |
| 20260506043306 | 48 | 24 | 3.5 | 7.8 | 0.00 | 0.00 | 0.00 | 85 | 1007.7 |
| 20260506042806 | 48 | 338 | 4.3 | 12.2 | 0.00 | 0.00 | 0.00 | 85 | 1007.8 |
| 20260506042306 | 49 | 348 | 4.3 | 12.2 | 0.00 | 0.00 | 0.00 | 85 | 1007.8 |
| 20260506041807 | 48 | 349 | 3.5 | 11.3 | 0.00 | 0.00 | 0.00 | 85 | 1007.7 |
| 20260506041305 | 49 | 355 | 3.5 | 9.6 | 0.00 | 0.00 | 0.00 | 85 | 1007.9 |
| 20260506040807 | 49 | 9 | 3.5 | 11.3 | 0.00 | 0.00 | 0.00 | 84 | 1007.8 |
| 20260506040538 | 49 | 0 | 2.6 | 11.3 | 0.00 | 0.00 | 0.00 | 84 | 1007.8 |
| 20260506035805 | 49 | 10 | 2.6 | 8.7 | 0.00 | 0.00 | 0.00 | 84 | 1007.9 |
| 20260506035306 | 49 | 355 | 2.6 | 8.7 | 0.00 | 0.00 | 0.00 | 84 | 1007.9 |
| 20260506034806 | 49 | 34 | 2.6 | 7.0 | 0.00 | 0.00 | 0.00 | 84 | 1007.9 |
| 20260506034306 | 49 | 11 | 2.6 | 8.7 | 0.00 | 0.00 | 0.00 | 84 | 1007.8 |
| 20260506033806 | 48 | 51 | 3.5 | 8.7 | 0.00 | 0.00 | 0.00 | 84 | 1007.8 |
| 20260506033311 | 48 | 16 | 3.5 | 7.8 | 0.00 | 0.00 | 0.00 | 84 | 1007.8 |
| 20260506032306 | 49 | 38 | 3.5 | 8.7 | 0.00 | 0.00 | 0.00 | 83 | 1007.9 |
| 20260506031805 | 49 | 343 | 3.5 | 10.4 | 0.00 | 0.00 | 0.00 | 83 | 1007.9 |
| 20260506031305 | 49 | 32 | 3.5 | 10.4 | 0.00 | 0.00 | 0.00 | 83 | 1007.9 |
| 20260506030821 | 49 | 0 | 3.5 | 10.4 | 0.00 | 0.00 | 0.00 | 83 | 1007.9 |
| 20260506030307 | 49 | 34 | 3.5 | 8.7 | 0.00 | 0.00 | 0.00 | 82 | 1008.0 |
| 20260506025806 | 49 | 344 | 3.5 | 9.6 | 0.00 | 0.00 | 0.00 | 82 | 1008.0 |
| 20260506025532 | 49 | 24 | 3.5 | 9.6 | 0.00 | 0.00 | 0.00 | 82 | 1008.1 |
| 20260506024754 | 49 | 0 | 3.5 | 9.6 | 0.00 | 0.00 | 0.00 | 82 | 1008.2 |
| 20260506024250 | 49 | 355 | 3.5 | 8.7 | 0.00 | 0.00 | 0.00 | 82 | 1008.2 |
| 20260506023741 | 49 | 355 | 3.5 | 8.7 | 0.00 | 0.00 | 0.00 | 82 | 1008.2 |
| 20260506023236 | 49 | 23 | 3.5 | 10.4 | 0.00 | 0.00 | 0.00 | 82 | 1008.2 |
| 20260506022730 | 49 | 34 | 3.5 | 10.4 | 0.00 | 0.00 | 0.00 | 82 | 1008.2 |
| 20260506022231 | 49 | 348 | 3.5 | 10.4 | 0.00 | 0.00 | 0.00 | 82 | 1008.3 |
| 20260506021212 | 49 | 11 | 3.5 | 9.6 | 0.00 | 0.00 | 0.00 | 82 | 1008.3 |
| 20260506020937 | 49 | 32 | 3.5 | 9.6 | 0.00 | 0.00 | 0.00 | 82 | 1008.2 |
| 20260506020158 | 49 | 44 | 2.6 | 12.2 | 0.00 | 0.00 | 0.00 | 82 | 1008.4 |
| 20260506015650 | 49 | 355 | 3.5 | 10.4 | 0.00 | 0.00 | 0.00 | 82 | 1008.3 |
| 20260506015146 | 49 | 27 | 3.5 | 10.4 | 0.00 | 0.00 | 0.00 | 82 | 1008.5 |
| 20260506014916 | 49 | 22 | 2.6 | 9.6 | 0.00 | 0.00 | 0.00 | 82 | 1008.4 |
| 20260506014134 | 49 | 28 | 3.5 | 10.4 | 0.00 | 0.00 | 0.00 | 82 | 1008.5 |
| 20260506013628 | 49 | 77 | 3.5 | 10.4 | 0.00 | 0.00 | 0.00 | 82 | 1008.5 |
| 20260506013123 | 49 | 17 | 2.6 | 11.3 | 0.00 | 0.00 | 0.00 | 82 | 1008.4 |
| 20260506012616 | 49 | 9 | 3.5 | 11.3 | 0.00 | 0.00 | 0.00 | 82 | 1008.5 |
| 20260506012110 | 49 | 349 | 3.5 | 10.4 | 0.00 | 0.00 | 0.00 | 82 | 1008.6 |
| 20260506011605 | 49 | 0 | 3.5 | 9.6 | 0.00 | 0.00 | 0.00 | 81 | 1008.6 |
| 20260506011058 | 49 | 344 | 3.5 | 9.6 | 0.00 | 0.00 | 0.00 | 81 | 1008.7 |
| 20260506010552 | 49 | 29 | 3.5 | 9.6 | 0.00 | 0.00 | 0.00 | 81 | 1008.7 |
| 20260506010059 | 49 | 52 | 3.5 | 8.7 | 0.00 | 0.00 | 0.00 | 81 | 1008.6 |
| 20260506005540 | 49 | 338 | 3.5 | 8.7 | 0.00 | 0.00 | 0.00 | 81 | 1008.7 |
| 20260506005034 | 49 | 23 | 4.3 | 10.4 | 0.00 | 0.00 | 0.00 | 81 | 1008.8 |
| 20260506004529 | 49 | 336 | 3.5 | 10.4 | 0.00 | 0.00 | 0.00 | 81 | 1008.9 |
| 20260506004022 | 49 | 12 | 3.5 | 8.7 | 0.00 | 0.00 | 0.00 | 81 | 1008.8 |
| 20260506003749 | 49 | 40 | 2.6 | 8.7 | 0.00 | 0.00 | 0.00 | 81 | 1008.9 |
| 20260506003010 | 49 | 42 | 2.6 | 8.7 | 0.00 | 0.00 | 0.00 | 81 | 1008.9 |
| 20260506002741 | 49 | 9 | 2.6 | 8.7 | 0.00 | 0.00 | 0.00 | 80 | 1009.0 |
| 20260506002001 | 49 | 40 | 2.6 | 9.6 | 0.00 | 0.00 | 0.00 | 80 | 1009.0 |
| 20260506001452 | 49 | 34 | 2.6 | 11.3 | 0.00 | 0.00 | 0.00 | 80 | 1009.0 |
| 20260506001220 | 49 | 39 | 3.5 | 11.3 | 0.00 | 0.00 | 0.00 | 80 | 1009.2 |
| 20260506000440 | 49 | 318 | 3.5 | 9.6 | 0.00 | 0.00 | 0.00 | 80 | 1009.2 |
| 20260505235935 | 49 | 18 | 3.5 | 9.6 | 0.00 | 0.00 | 0.00 | 80 | 1009.3 |
| 20260505235428 | 49 | 339 | 2.6 | 9.6 | 0.00 | 0.00 | 0.00 | 80 | 1009.2 |
| 20260505234922 | 49 | 350 | 3.5 | 8.7 | 0.00 | 0.00 | 0.00 | 80 | 1009.3 |
| 20260505234416 | 49 | 22 | 3.5 | 9.6 | 0.00 | 0.00 | 0.00 | 80 | 1009.3 |
| 20260505233910 | 49 | 344 | 2.6 | 9.6 | 0.00 | 0.00 | 0.00 | 80 | 1009.3 |
| 20260505233405 | 49 | 22 | 2.6 | 8.7 | 0.00 | 0.00 | 0.00 | 80 | 1009.3 |
| 20260505232858 | 49 | 31 | 2.6 | 9.6 | 0.00 | 0.00 | 0.00 | 80 | 1009.3 |
| 20260505232352 | 49 | 329 | 3.5 | 9.6 | 0.00 | 0.00 | 0.00 | 80 | 1009.3 |
| 20260505231846 | 49 | 0 | 3.5 | 8.7 | 0.00 | 0.00 | 0.00 | 79 | 1009.3 |
| 20260505231615 | 49 | 12 | 3.5 | 10.4 | 0.00 | 0.00 | 0.00 | 80 | 1009.3 |
| 20260505230834 | 49 | 28 | 2.6 | 10.4 | 0.00 | 0.00 | 0.00 | 80 | 1009.4 |
| 20260505230340 | 49 | 0 | 2.6 | 8.7 | 0.00 | 0.00 | 0.00 | 80 | 1009.5 |
| 20260505225821 | 49 | 355 | 2.6 | 11.3 | 0.00 | 0.00 | 0.00 | 80 | 1009.4 |
| 20260505225316 | 49 | 9 | 2.6 | 11.3 | 0.00 | 0.00 | 0.00 | 80 | 1009.5 |
| 20260505225045 | 49 | 355 | 2.6 | 8.7 | 0.00 | 0.00 | 0.00 | 80 | 1009.4 |
| 20260505224314 | 49 | 348 | 3.5 | 11.3 | 0.00 | 0.00 | 0.00 | 80 | 1009.6 |
| 20260505223814 | 49 | 79 | 3.5 | 11.3 | 0.00 | 0.00 | 0.00 | 80 | 1009.5 |
| 20260505223313 | 49 | 40 | 3.5 | 9.6 | 0.00 | 0.00 | 0.00 | 80 | 1009.6 |
| 20260505222813 | 49 | 338 | 3.5 | 9.6 | 0.00 | 0.00 | 0.00 | 80 | 1009.6 |
| 20260505222313 | 49 | 32 | 3.5 | 8.7 | 0.00 | 0.00 | 0.00 | 81 | 1009.7 |
| 20260505221816 | 49 | 344 | 4.3 | 11.3 | 0.00 | 0.00 | 0.00 | 80 | 1009.7 |
| 20260505221313 | 49 | 36 | 4.3 | 11.3 | 0.00 | 0.00 | 0.00 | 80 | 1009.7 |
| 20260505220814 | 49 | 61 | 4.3 | 13.0 | 0.00 | 0.00 | 0.00 | 80 | 1009.7 |
| 20260505220313 | 49 | 40 | 3.5 | 13.0 | 0.00 | 0.00 | 0.00 | 80 | 1009.7 |
| 20260505215811 | 49 | 344 | 3.5 | 9.6 | 0.00 | 0.00 | 0.00 | 81 | 1009.7 |
| 20260505215313 | 50 | 45 | 3.5 | 9.6 | 0.00 | 0.00 | 0.00 | 81 | 1009.8 |
| 20260505214811 | 50 | 9 | 4.3 | 11.3 | 0.00 | 0.00 | 0.00 | 81 | 1009.9 |
| 20260505214315 | 50 | 69 | 4.3 | 12.2 | 0.00 | 0.00 | 0.00 | 81 | 1010.0 |
| 20260505213300 | 50 | 56 | 3.5 | 10.4 | 0.00 | 0.00 | 0.00 | 81 | 1010.1 |
| 20260505213028 | 50 | 34 | 3.5 | 8.7 | 0.00 | 0.00 | 0.00 | 81 | 1009.9 |
| 20260505212247 | 50 | 19 | 3.5 | 11.3 | 0.00 | 0.00 | 0.00 | 81 | 1010.0 |
| 20260505211752 | 50 | 19 | 3.5 | 11.3 | 0.00 | 0.00 | 0.00 | 81 | 1010.1 |
| 20260505210743 | 50 | 344 | 3.5 | 9.6 | 0.00 | 0.00 | 0.00 | 81 | 1010.1 |
| 20260505210245 | 50 | 0 | 3.5 | 8.7 | 0.00 | 0.00 | 0.00 | 81 | 1010.2 |
| 20260505205745 | 50 | 38 | 3.5 | 8.7 | 0.00 | 0.00 | 0.00 | 80 | 1010.2 |
| 20260505205245 | 50 | 46 | 4.3 | 8.7 | 0.00 | 0.00 | 0.00 | 80 | 1010.2 |
| 20260505204744 | 50 | 47 | 3.5 | 8.7 | 0.00 | 0.00 | 0.00 | 80 | 1010.2 |
| 20260505203739 | 50 | 67 | 3.5 | 13.9 | 0.00 | 0.00 | 0.00 | 80 | 1010.3 |
| 20260505203514 | 50 | 27 | 3.5 | 13.9 | 0.00 | 0.00 | 0.00 | 80 | 1010.4 |
| 20260505202740 | 50 | 32 | 4.3 | 13.0 | 0.00 | 0.00 | 0.00 | 80 | 1010.4 |
| 20260505202241 | 50 | 17 | 3.5 | 10.4 | 0.00 | 0.00 | 0.00 | 80 | 1010.4 |
| 20260505201737 | 50 | 60 | 2.6 | 10.4 | 0.00 | 0.00 | 0.00 | 79 | 1010.4 |
| 20260505201237 | 50 | 36 | 3.5 | 10.4 | 0.00 | 0.00 | 0.00 | 79 | 1010.3 |
| 20260505201016 | 50 | 51 | 4.3 | 10.4 | 0.00 | 0.00 | 0.00 | 79 | 1010.2 |
| 20260505200238 | 50 | 0 | 3.5 | 10.4 | 0.00 | 0.00 | 0.00 | 79 | 1010.3 |
| 20260505195738 | 50 | 333 | 3.5 | 11.3 | 0.00 | 0.00 | 0.00 | 79 | 1010.2 |
| 20260505195515 | 50 | 340 | 2.6 | 11.3 | 0.00 | 0.00 | 0.00 | 79 | 1010.1 |
| 20260505194730 | 50 | 45 | 2.6 | 8.7 | 0.00 | 0.00 | 0.00 | 79 | 1010.0 |
| 20260505194226 | 50 | 43 | 3.5 | 9.6 | 0.00 | 0.00 | 0.00 | 79 | 1010.1 |
| 20260505193720 | 50 | 45 | 4.3 | 10.4 | 0.00 | 0.00 | 0.00 | 79 | 1010.1 |
| 20260505193214 | 50 | 22 | 3.5 | 10.4 | 0.00 | 0.00 | 0.00 | 79 | 1010.1 |
| 20260505192708 | 50 | 338 | 2.6 | 7.8 | 0.00 | 0.00 | 0.00 | 79 | 1010.1 |
| 20260505192202 | 50 | 19 | 2.6 | 10.4 | 0.00 | 0.00 | 0.00 | 79 | 1010.0 |
| 20260505191657 | 50 | 9 | 2.6 | 7.8 | 0.00 | 0.00 | 0.00 | 78 | 1010.0 |
| 20260505191152 | 51 | 9 | 2.6 | 9.6 | 0.00 | 0.00 | 0.00 | 78 | 1010.0 |
| 20260505190924 | 51 | 355 | 3.5 | 10.4 | 0.00 | 0.00 | 0.00 | 78 | 1010.0 |
| 20260505190138 | 51 | 350 | 3.5 | 10.4 | 0.00 | 0.00 | 0.00 | 78 | 1009.9 |
| 20260505185632 | 51 | 30 | 3.5 | 10.4 | 0.00 | 0.00 | 0.00 | 78 | 1009.9 |
| 20260505185126 | 51 | 22 | 3.5 | 10.4 | 0.00 | 0.00 | 0.00 | 77 | 1009.9 |
| 20260505184620 | 51 | 16 | 4.3 | 13.0 | 0.00 | 0.00 | 0.00 | 77 | 1009.8 |
| 20260505184113 | 51 | 71 | 4.3 | 13.0 | 0.00 | 0.00 | 0.00 | 77 | 1009.9 |
| 20260505183608 | 51 | 76 | 3.5 | 11.3 | 0.00 | 0.00 | 0.00 | 77 | 1009.8 |
| 20260505183102 | 51 | 30 | 3.5 | 9.6 | 0.00 | 0.00 | 0.00 | 77 | 1009.8 |
| 20260505182556 | 51 | 40 | 3.5 | 9.6 | 0.00 | 0.00 | 0.00 | 77 | 1009.8 |
| 20260505182050 | 51 | 355 | 2.6 | 9.6 | 0.00 | 0.00 | 0.00 | 76 | 1009.8 |
| 20260505181545 | 51 | 95 | 3.5 | 9.6 | 0.00 | 0.00 | 0.00 | 76 | 1009.9 |
| 20260505181037 | 51 | 48 | 3.5 | 11.3 | 0.00 | 0.00 | 0.00 | 75 | 1009.9 |
| 20260505180533 | 52 | 45 | 3.5 | 11.3 | 0.00 | 0.00 | 0.00 | 75 | 1009.8 |
| 20260505180258 | 52 | 51 | 3.5 | 10.4 | 0.00 | 0.00 | 0.00 | 75 | 1009.8 |
| 20260505175522 | 52 | 69 | 3.5 | 11.3 | 0.00 | 0.00 | 0.00 | 75 | 1009.8 |
| 20260505175014 | 52 | 18 | 3.5 | 11.3 | 0.00 | 0.00 | 0.00 | 75 | 1009.8 |
| 20260505174741 | 52 | 21 | 3.5 | 8.7 | 0.00 | 0.00 | 0.00 | 75 | 1009.9 |
| 20260505174002 | 52 | 65 | 3.5 | 8.7 | 0.00 | 0.00 | 0.00 | 75 | 1009.9 |
| 20260505173457 | 52 | 70 | 2.6 | 9.6 | 0.00 | 0.00 | 0.00 | 75 | 1009.9 |
| 20260505173222 | 52 | 98 | 2.6 | 9.6 | 0.00 | 0.00 | 0.00 | 75 | 1010.0 |
| 20260505172444 | 52 | 46 | 1.7 | 7.8 | 0.00 | 0.00 | 0.00 | 75 | 1009.8 |
| 20260505171939 | 52 | 52 | 2.6 | 7.0 | 0.00 | 0.00 | 0.00 | 75 | 1009.8 |
| 20260505171433 | 52 | 30 | 3.5 | 10.4 | 0.00 | 0.00 | 0.00 | 75 | 1010.0 |
| 20260505170928 | 52 | 37 | 3.5 | 12.2 | 0.00 | 0.00 | 0.00 | 75 | 1010.0 |
| 20260505170440 | 53 | 23 | 2.6 | 12.2 | 0.00 | 0.00 | 0.00 | 75 | 1010.0 |
| 20260505165928 | 53 | 344 | 2.6 | 8.7 | 0.00 | 0.00 | 0.00 | 74 | 1010.0 |
| 20260505165657 | 53 | 64 | 3.5 | 8.7 | 0.00 | 0.00 | 0.00 | 74 | 1010.1 |
| 20260505164925 | 53 | 49 | 3.5 | 8.7 | 0.00 | 0.00 | 0.00 | 73 | 1010.0 |
| 20260505164426 | 53 | 0 | 2.6 | 8.7 | 0.00 | 0.00 | 0.00 | 74 | 1010.0 |
| 20260505163925 | 53 | 17 | 2.6 | 8.7 | 0.00 | 0.00 | 0.00 | 74 | 1010.0 |
| 20260505163658 | 53 | 62 | 3.5 | 10.4 | 0.00 | 0.00 | 0.00 | 74 | 1010.1 |
| 20260505162926 | 53 | 61 | 3.5 | 10.4 | 0.00 | 0.00 | 0.00 | 74 | 1010.0 |
| 20260505162427 | 53 | 97 | 2.6 | 8.7 | 0.00 | 0.00 | 0.00 | 74 | 1010.0 |
| 20260505161928 | 53 | 60 | 3.5 | 8.7 | 0.00 | 0.00 | 0.00 | 74 | 1010.1 |
| 20260505161425 | 53 | 355 | 2.6 | 10.4 | 0.00 | 0.00 | 0.00 | 74 | 1010.0 |
| 20260505160925 | 53 | 61 | 2.6 | 10.4 | 0.00 | 0.00 | 0.00 | 75 | 1010.0 |
| 20260505160425 | 53 | 69 | 3.5 | 9.6 | 0.00 | 0.00 | 0.00 | 75 | 1010.1 |
| 20260505152422 | 53 | 355 | 2.6 | 8.7 | 0.00 | 0.00 | 0.00 | 74 | 1010.2 |
| 20260505151924 | 53 | 38 | 2.6 | 9.6 | 0.00 | 0.00 | 0.00 | 74 | 1010.2 |
| 20260505151423 | 53 | 72 | 3.5 | 9.6 | 0.00 | 0.00 | 0.00 | 74 | 1010.2 |
| 20260505151158 | 53 | 46 | 3.5 | 8.7 | 0.00 | 0.00 | 0.00 | 74 | 1010.2 |
| 20260505150422 | 53 | 55 | 3.5 | 10.4 | 0.00 | 0.00 | 0.00 | 73 | 1010.2 |
| 20260505140420 | 54 | 54 | 3.5 | 9.6 | 0.00 | 0.00 | 0.00 | 74 | 1010.6 |